This is the latest recevied weather packets stored in our database for station/object K1WJY. If no packets are shown the sender has not sent any weather packets the latest 10 day(s).
| Time | Temp. | Humidity | Pressure | Rain* | Wind** | Luminosity | Snow |
|---|---|---|---|---|---|---|---|
| 1788091164 | 17.78° C | 94% | 1020.1 hPa | 0 mm | - | 109 W/m² | - |
| 1788090860 | 17.22° C | 97% | 1020.2 hPa | 0 mm | - | 110 W/m² | - |
| 1788090555 | 16.67° C | 99% | 1020.1 hPa | 0 mm | - | 108 W/m² | - |
| 1788090252 | 16.67° C | 99% | 1020 hPa | 0 mm | - | 101 W/m² | - |
| 1788089951 | 16.11° C | 99% | 1020.2 hPa | 0 mm | - | 92 W/m² | - |
| 1788089652 | 15.56° C | 99% | 1020.3 hPa | 0 mm | - | 85 W/m² | - |
| 1788089347 | 15° C | 99% | 1020.2 hPa | 0 mm | - | 76 W/m² | - |
| 1788089043 | 14.44° C | 99% | 1020.3 hPa | 0 mm | - | 69 W/m² | - |
| 1788088739 | 13.89° C | 99% | 1020.4 hPa | 0 mm | - | 50 W/m² | - |
| 1788088434 | 13.89° C | 99% | 1020.4 hPa | 0 mm | - | 44 W/m² | - |
| 1788088129 | 13.89° C | 99% | 1020.6 hPa | 0 mm | - | 33 W/m² | - |
| 1788087825 | 13.89° C | 99% | 1020.4 hPa | 0 mm | - | 26 W/m² | - |
| 1788087524 | 13.89° C | 99% | 1020.6 hPa | 0 mm | - | 21 W/m² | - |
| 1788087221 | 13.33° C | 99% | 1020.5 hPa | 0 mm | - | 22 W/m² | - |
| 1788086917 | 12.78° C | 99% | 1020.7 hPa | 0 mm | - | 19 W/m² | - |
| 1788086614 | 12.78° C | 99% | 1020.5 hPa | 0 mm | - | 15 W/m² | - |
| 1788086312 | 12.78° C | 99% | 1020.4 hPa | 0 mm | - | 14 W/m² | - |
| 1788086009 | 12.22° C | 99% | 1020.9 hPa | 0 mm | - | 14 W/m² | - |
| 1788085706 | 11.67° C | 99% | 1020.7 hPa | 0 mm | - | 15 W/m² | - |
| 1788085402 | 11.67° C | 99% | 1020.9 hPa | 0 mm | - | 13 W/m² | - |
| 1788085098 | 11.67° C | 99% | 1020.6 hPa | 0 mm | - | 9 W/m² | - |
| 1788084793 | 11.11° C | 99% | 1020.8 hPa | 0 mm | - | 5 W/m² | - |
| 1788084493 | 11.11° C | 99% | 1020.8 hPa | 0 mm | - | 5 W/m² | - |
| 1788084187 | 11.11° C | 99% | 1020.7 hPa | 0 mm | - | 3 W/m² | - |
| 1788083886 | 11.11° C | 99% | 1020.9 hPa | 0 mm | - | 2 W/m² | - |
* Rain latest hour (hover to see other rain measurements)
** Current wind speed in m/s (hover to see current wind gust speed)